Weather History for Shenandoah, IA

Change the Weather History Date:

Monday, February 18, 2013

  Actual Average Record
Temperature  
Mean Temperature 32 °F -  
Max Temperature 42 °F 41 °F 66 °F (1970)
Min Temperature 21 °F 20 °F -17 °F (1978)
Degree Days  
Heating Degree Days 34    
Moisture  
Dew Point 22 °F    
Average Humidity 68    
Maximum Humidity 86    
Minimum Humidity 55    
Precipitation  
Precipitation 0.00 in - - ()
Sea Level Pressure  
Sea Level Pressure 29.78 in    
Wind  
Wind Speed 11 mph (NNW)    
Max Wind Speed 25 mph    
Max Gust Speed 37 mph    
Visibility 10 miles    
Events Snow    
Averages and records for this station are not official NWS values.
T = Trace of Precipitation, MM = Missing Value Source: NWS Daily Summary

Daily Weather History Graph

Daily Weather History Graph

Search for Another Location

Airport:

Trip Planner

Search our weather history database for the weather conditions in past years. The results will help you decide how hot, cold, wet, or windy it might be!

Date:

Astronomy

Feb. 18, 2013 Rise Set
Actual Time 7:11 AM CST 6:00 PM CST
Civil Twilight 6:43 AM CST 6:28 PM CST
Nautical Twilight 6:11 AM CST 7:00 PM CST
Astronomical Twilight 5:39 AM CST 7:32 PM CST
Moon 11:46 AM CST 1:52 AM CST
Length of Visible Light 11h 45m
Length of Day
10h 49m
First Quarter, 58% of the Moon is Illuminated
Feb 18
First Quarter
Feb 25
Full
Mar 4
Last Quarter
Mar 11
New
Mar 19
First Quarter

Hourly Weather History & Observations

Time (CST) Temp. Windchill Dew Point Humidity Pressure Visibility Wind Dir Wind Speed Gust Speed Precip Events Conditions
12:15 AM 42.8 °F 36.6 °F 28.4 °F 57% 29.59 in 10.0 mi SSE 11.5 mph - N/A   Scattered Clouds
12:35 AM 42.8 °F 36.6 °F 28.4 °F 57% 29.59 in 10.0 mi SSE 11.5 mph - N/A   Scattered Clouds
12:55 AM 41.0 °F 36.4 °F 28.4 °F 61% 29.58 in 10.0 mi SSE 6.9 mph - N/A   Scattered Clouds
1:15 AM 39.2 °F - 28.4 °F 65% 29.58 in 10.0 mi Calm Calm - N/A   Scattered Clouds
1:35 AM 39.2 °F - 28.4 °F 65% 29.57 in 10.0 mi Calm Calm - N/A   Scattered Clouds
1:55 AM 39.2 °F 35.9 °F 28.4 °F 65% 29.57 in 10.0 mi SE 4.6 mph - N/A   Scattered Clouds
2:15 AM 37.4 °F 32.8 °F 26.6 °F 65% 29.56 in 10.0 mi SE 5.8 mph - N/A   Scattered Clouds
2:35 AM 35.6 °F 32.8 °F 26.6 °F 70% 29.56 in 10.0 mi ESE 3.5 mph - N/A   Scattered Clouds
3:15 AM 33.8 °F 30.8 °F 26.6 °F 75% 29.57 in 10.0 mi NNW 3.5 mph - N/A   Scattered Clouds
3:35 AM 37.4 °F 31.4 °F 28.4 °F 70% 29.59 in 10.0 mi NNW 8.1 mph - N/A   Clear
3:55 AM 35.6 °F 32.8 °F 26.6 °F 70% 29.57 in 10.0 mi East 3.5 mph - N/A   Scattered Clouds
4:15 AM 30.2 °F 25.4 °F 24.8 °F 80% 29.56 in 10.0 mi ESE 4.6 mph - N/A   Scattered Clouds
4:35 AM 32.0 °F 28.7 °F 26.6 °F 80% 29.55 in 10.0 mi East 3.5 mph - N/A   Scattered Clouds
4:55 AM 30.2 °F - 24.8 °F 80% 29.56 in 10.0 mi Calm Calm - N/A   Scattered Clouds
5:15 AM 30.2 °F - 24.8 °F 80% 29.57 in 10.0 mi Calm Calm - N/A   Scattered Clouds
5:35 AM 28.4 °F - 24.8 °F 86% 29.58 in 10.0 mi Calm Calm - N/A   Scattered Clouds
6:15 AM 30.2 °F 24.3 °F 26.6 °F 86% 29.57 in 10.0 mi NNE 5.8 mph - N/A   Scattered Clouds
6:35 AM 32.0 °F 27.5 °F 26.6 °F 80% 29.59 in 10.0 mi NNE 4.6 mph - N/A   Scattered Clouds
6:55 AM 33.8 °F 25.3 °F 28.4 °F 81% 29.60 in 10.0 mi North 11.5 mph - N/A   Scattered Clouds
7:15 AM 35.6 °F 27.5 °F 28.4 °F 75% 29.62 in 10.0 mi North 11.5 mph - N/A   Scattered Clouds
7:35 AM 37.4 °F 28.5 °F 28.4 °F 70% 29.63 in 10.0 mi North 15.0 mph 18.4 mph N/A   Clear
7:55 AM 35.6 °F 27.5 °F 28.4 °F 75% 29.64 in 10.0 mi North 11.5 mph - N/A   Clear
8:15 AM 37.4 °F 29.3 °F 28.4 °F 70% 29.64 in 10.0 mi North 12.7 mph 23.0 mph N/A   Clear
8:35 AM 37.4 °F 29.8 °F 28.4 °F 70% 29.65 in 10.0 mi North 11.5 mph 18.4 mph N/A   Clear
8:55 AM 37.4 °F 29.3 °F 30.2 °F 75% 29.66 in 10.0 mi North 12.7 mph 19.6 mph N/A   Clear
9:15 AM 39.2 °F 29.0 °F 30.2 °F 70% 29.66 in 10.0 mi North 21.9 mph 27.6 mph N/A   Clear
9:35 AM 41.0 °F 33.5 °F 30.2 °F 65% 29.67 in 10.0 mi North 13.8 mph 26.5 mph N/A   Scattered Clouds
9:55 AM 41.0 °F 32.5 °F 30.2 °F 65% 29.68 in 10.0 mi North 17.3 mph 25.3 mph N/A   Scattered Clouds
10:35 AM 39.2 °F 30.8 °F 28.4 °F 65% 29.72 in 10.0 mi North 15.0 mph 21.9 mph N/A   Overcast
10:55 AM 39.2 °F 30.8 °F 28.4 °F 65% 29.73 in 10.0 mi NNW 15.0 mph 18.4 mph N/A   Overcast
11:15 AM 39.2 °F 30.8 °F 28.4 °F 65% 29.74 in 10.0 mi NNW 15.0 mph 24.2 mph N/A   Overcast
11:35 AM 39.2 °F 29.6 °F 28.4 °F 65% 29.74 in 10.0 mi North 19.6 mph 29.9 mph N/A   Overcast
11:55 AM 39.2 °F 28.7 °F 28.4 °F 65% 29.75 in 10.0 mi NNW 23.0 mph 28.8 mph N/A   Overcast
12:15 PM 32.0 °F 20.1 °F 26.6 °F 80% 29.77 in 0.5 mi NNW 19.6 mph 35.7 mph N/A Snow Light Snow
12:35 PM 30.2 °F 18.9 °F 26.6 °F 86% 29.78 in 0.8 mi North 16.1 mph 28.8 mph N/A Snow Light Snow
12:55 PM 30.2 °F 18.1 °F 26.6 °F 86% 29.79 in 1.5 mi NNW 18.4 mph 26.5 mph N/A Snow Light Snow
1:15 PM 30.2 °F 19.8 °F 26.6 °F 86% 29.79 in 1.0 mi NNW 13.8 mph 26.5 mph N/A Snow Light Snow
1:35 PM 32.0 °F 20.5 °F 24.8 °F 75% 29.79 in 10.0 mi NNW 18.4 mph 29.9 mph N/A   Mostly Cloudy
1:55 PM 32.0 °F 20.1 °F 24.8 °F 75% 29.79 in 10.0 mi NNW 19.6 mph 26.5 mph N/A   Overcast
2:15 PM 32.0 °F 20.5 °F 24.8 °F 75% 29.80 in 10.0 mi NW 18.4 mph 27.6 mph N/A   Overcast
2:35 PM 30.2 °F 18.5 °F 23.0 °F 75% 29.82 in 10.0 mi NNW 17.3 mph 27.6 mph N/A   Overcast
2:55 PM 32.0 °F 20.1 °F 21.2 °F 64% 29.83 in 10.0 mi NW 19.6 mph 28.8 mph N/A   Mostly Cloudy
3:15 PM 30.2 °F 19.8 °F 21.2 °F 69% 29.84 in 10.0 mi NW 13.8 mph 26.5 mph N/A   Mostly Cloudy
3:35 PM 30.2 °F 16.2 °F 19.4 °F 64% 29.84 in 10.0 mi NNW 25.3 mph 33.4 mph N/A   Mostly Cloudy
3:55 PM 30.2 °F 19.3 °F 19.4 °F 64% 29.86 in 10.0 mi NNW 15.0 mph 28.8 mph N/A   Mostly Cloudy
4:15 PM 30.2 °F 17.4 °F 17.6 °F 60% 29.86 in 10.0 mi NW 20.7 mph 36.8 mph N/A   Mostly Cloudy
4:35 PM 30.2 °F 17.4 °F 17.6 °F 60% 29.87 in 10.0 mi NW 20.7 mph 28.8 mph N/A   Mostly Cloudy
4:55 PM 30.2 °F 18.9 °F 15.8 °F 55% 29.88 in 10.0 mi NW 16.1 mph 31.1 mph N/A   Scattered Clouds
5:15 PM 30.2 °F 17.8 °F 15.8 °F 55% 29.89 in 10.0 mi NW 19.6 mph 33.4 mph N/A   Scattered Clouds
5:35 PM 28.4 °F 16.6 °F 15.8 °F 59% 29.90 in 10.0 mi NW 16.1 mph 23.0 mph N/A   Clear
5:55 PM 28.4 °F 17.0 °F 15.8 °F 59% 29.92 in 10.0 mi NW 15.0 mph 24.2 mph N/A   Clear
6:15 PM 28.4 °F 16.6 °F 15.8 °F 59% 29.93 in 10.0 mi NNW 16.1 mph 26.5 mph N/A   Scattered Clouds
6:35 PM 28.4 °F 16.2 °F 15.8 °F 59% 29.94 in 10.0 mi NNW 17.3 mph 28.8 mph N/A   Clear
6:55 PM 26.6 °F 14.7 °F 15.8 °F 64% 29.96 in 10.0 mi NNW 15.0 mph 24.2 mph N/A   Scattered Clouds
7:15 PM 26.6 °F 15.2 °F 15.8 °F 64% 29.97 in 10.0 mi NW 13.8 mph 24.2 mph N/A   Scattered Clouds
7:35 PM 26.6 °F 15.7 °F 15.8 °F 64% 29.98 in 10.0 mi NNW 12.7 mph 18.4 mph N/A   Scattered Clouds
7:55 PM 26.6 °F 14.7 °F 14.0 °F 59% 29.99 in 10.0 mi NNW 15.0 mph 23.0 mph N/A   Scattered Clouds
8:15 PM 24.8 °F 14.6 °F 14.0 °F 64% 29.99 in 10.0 mi NNW 10.4 mph 19.6 mph N/A   Scattered Clouds
8:35 PM 24.8 °F 14.6 °F 14.0 °F 64% 30.00 in 10.0 mi NNW 10.4 mph 20.7 mph N/A   Scattered Clouds
8:55 PM 24.8 °F 10.7 °F 12.2 °F 59% 30.01 in 10.0 mi NNW 19.6 mph 28.8 mph N/A   Scattered Clouds
9:15 PM 24.8 °F 11.9 °F 12.2 °F 59% 30.02 in 10.0 mi NNW 16.1 mph 25.3 mph N/A   Scattered Clouds
9:35 PM 23.0 °F 9.6 °F 10.4 °F 59% 30.03 in 10.0 mi NNW 16.1 mph 21.9 mph N/A   Scattered Clouds
9:55 PM 23.0 °F 9.6 °F 10.4 °F 59% 30.04 in 10.0 mi NNW 16.1 mph 23.0 mph N/A   Scattered Clouds
10:15 PM 21.2 °F 8.3 °F 10.4 °F 63% 30.04 in 10.0 mi NNW 13.8 mph 18.4 mph N/A   Scattered Clouds
10:35 PM 21.2 °F 11.7 °F 10.4 °F 63% 30.05 in 10.0 mi NNW 8.1 mph - N/A   Scattered Clouds
10:55 PM 21.2 °F 9.5 °F 12.2 °F 68% 30.06 in 10.0 mi NW 11.5 mph - N/A   Scattered Clouds
11:15 PM 21.2 °F 13.6 °F 12.2 °F 68% 30.06 in 10.0 mi NW 5.8 mph - N/A   Scattered Clouds
11:35 PM 21.2 °F 10.9 °F 12.2 °F 68% 30.07 in 10.0 mi WNW 9.2 mph - N/A   Scattered Clouds
11:55 PM 21.2 °F 7.8 °F 12.2 °F 68% 30.07 in 10.0 mi NW 15.0 mph 20.7 mph N/A   Mostly Cloudy